Wind_Speed
11 11 13 16 19 23 26 29 31 36 38 37 39 40 41 41 40 39 37 36 34 34 34 35 35 35 36 37 38 38 37 35 33 30 27 26 24 22 20 18 18 18 19 20
7 8 11 13 15 17 20 22 24 31 34 35 37 37 38 38 36 35 34 33 32 33 33 34 34 36 37 38 38 38 36 35 32 28 27 25 22 19 17 17 16 16 17 18
2 7 7 9 10 11 13 15 19 24 27 28 30 28 30 32 32 32 32 31 31 31 32 34 35 37 38 38 38 37 35 33 30 28 26 24 21 19 18 18 19 19 19 20
5 6 7 7 9 9 11 16 18 20 20 19 23 20 23 28 28 30 30 30 30 31 32 34 36 38 38 37 36 36 34 33 30 28 26 24 22 22 22 22 23 23 23 23
8 8 8 9 11 11 13 15 16 17 17 17 18 16 18 26 25 27 28 29 28 29 31 32 34 34 34 35 34 34 34 33 31 28 26 26 25 26 26 26 27 27 26 26
8 9 9 10 11 11 12 12 13 13 13 12 14 12 15 20 20 21 22 22 23 24 26 28 30 31 33 34 35 36 35 34 32 29 29 29 30 30 30 30 29 29 28 28
8 8 9 9 8 11 11 10 10 10 10 11 15 13 17 17 16 18 19 20 21 23 25 28 30 32 34 35 36 36 36 36 35 34 34 34 35 34 34 33 32 31 30 29
6 7 10 9 9 10 11 11 11 11 12 13 18 17 19 17 18 19 20 21 23 24 27 29 31 33 35 37 38 39 39 39 39 39 39 39 38 37 36 34 33 32 31 29
7 7 11 10 9 10 10 10 12 14 14 15 14 20 20 19 21 22 23 25 26 28 30 32 34 35 37 38 40 41 42 43 43 43 42 41 40 38 37 35 34 33 32 31
6 6 8 10 10 9 10 11 12 13 14 15 15 18 23 21 22 25 27 29 31 34 36 37 38 40 41 42 44 45 46 47 47 46 45 44 43 41 40 39 37 36 34 33
6 6 7 10 10 12 13 13 14 15 17 19 18 22 26 26 27 30 32 34 37 39 41 42 44 45 46 47 49 49 50 51 51 51 50 49 48 46 45 43 41 39 37 35
7 8 9 12 13 14 15 16 18 19 21 23 24 28 27 29 31 33 36 38 40 42 44 46 47 48 49 51 52 53 54 55 56 56 56 55 53 52 50 49 46 44 41 39
9 11 12 14 18 20 19 19 20 22 24 25 27 32 32 35 36 38 39 41 42 44 45 47 48 50 52 53 55 56 57 59 61 62 62 61 59 58 57 54 51 49 46 43
13 13 15 15 17 21 23 24 24 25 27 29 31 36 38 39 41 42 43 44 46 47 49 51 52 53 55 57 59 60 62 63 65 66 66 66 65 65 64 62 58 54 51 47
15 16 18 20 21 23 24 25 26 27 30 32 34 37 40 41 43 44 45 47 48 50 53 55 57 59 61 63 65 66 68 69 70 71 72 72 71 70 69 68 64 60 57 52
17 18 19 21 22 24 26 26 28 30 31 33 35 38 40 42 44 46 49 52 55 58 60 63 65 67 69 71 73 74 76 77 78 78 79 78 79 77 77 75 70 65 62 58
18 20 21 23 25 27 28 28 30 31 33 34 37 41 44 47 50 53 56 60 63 66 70 72 75 77 78 79 80 81 81 82 83 84 84 84 83 82 81 79 75 71 66 63
20 21 23 25 27 28 28 29 31 33 35 39 43 47 50 54 57 60 64 69 71 74 77 79 78 77 74 71 68 67 67 68 69 70 72 74 76 78 78 78 76 73 69 66
22 24 25 26 27 30 29 31 35 38 42 45 49 52 56 60 63 67 72 76 78 79 77 73 66 60 54 50 47 46 45 45 46 48 49 52 55 58 60 63 66 67 66 64
24 25 27 28 29 32 35 38 40 44 48 51 55 59 63 67 70 73 77 78 76 69 61 54 48 43 41 39 39 38 37 36 36 35 35 35 35 37 40 43 47 50 53 54
27 28 28 30 33 36 38 41 44 47 52 56 60 64 68 73 76 78 76 70 60 52 47 43 41 40 40 40 41 41 40 39 38 36 34 31 30 28 28 29 32 36 39 42
28 29 31 33 36 40 43 45 48 52 56 61 65 69 73 76 77 73 64 54 47 43 42 41 40 40 41 42 43 43 42 42 41 39 37 34 31 29 27 25 25 28 32 35
29 31 33 35 37 41 46 50 53 57 61 65 70 74 77 77 71 61 50 43 41 41 41 42 43 43 44 45 46 45 44 44 43 42 40 37 34 30 29 27 27 27 29 33
30 33 35 38 41 44 48 52 56 61 65 69 74 76 75 69 58 47 41 40 40 41 43 45 45 46 47 48 48 48 48 47 45 43 41 38 35 32 30 29 27 27 27 32
34 36 39 41 44 47 50 55 59 63 67 72 75 73 67 58 47 41 39 40 42 44 46 47 49 50 50 51 51 50 49 48 44 42 40 37 35 33 31 29 28 27 27 30
36 39 42 44 48 51 54 58 62 65 70 74 74 68 56 47 41 39 40 43 45 47 48 50 52 53 53 52 50 49 48 45 41 38 36 34 32 31 31 30 29 29 28 28
Wind_Direction
273 267 258 253 245 243 245 243 245 248 251 252 253 256 260 263 266 268 269 269 269 268 269 271 274 276 279 282 285 288 290 291 292 292 293 294 293 293 293 294 296 299 301 303
299 281 270 263 256 251 249 248 250 254 254 255 257 260 264 267 268 269 269 267 266 267 268 270 272 275 277 280 283 285 286 288 289 289 291 292 292 291 292 295 299 303 306 310
291 283 287 278 271 265 260 254 255 258 262 265 266 270 273 270 270 270 269 269 268 268 269 270 271 273 274 277 280 283 284 286 287 289 290 290 289 289 291 294 298 300 303 307
288 286 286 286 280 275 277 269 269 272 274 273 275 273 273 276 273 271 270 269 268 267 267 268 269 272 273 276 278 280 282 285 286 288 288 287 287 286 288 289 292 295 297 302
282 281 281 281 277 278 272 278 281 283 284 282 282 277 269 275 274 273 273 272 270 269 268 268 270 272 275 277 278 281 284 286 286 286 284 284 284 284 285 286 288 289 292 296
295 293 286 282 286 287 288 292 298 303 302 294 282 277 265 277 281 279 279 278 276 275 274 273 275 276 277 279 281 283 285 286 285 284 283 283 283 283 283 284 285 287 289 293
318 316 305 299 304 302 300 304 310 308 301 289 290 286 271 285 285 285 285 282 279 277 276 275 276 277 278 280 281 282 283 284 283 282 282 282 283 282 282 283 283 285 288 291
316 307 302 308 304 295 297 294 288 282 278 280 294 291 288 289 290 289 287 284 280 277 277 277 276 276 277 278 278 278 278 279 280 280 281 281 282 282 282 282 284 285 287 289
289 283 302 310 309 307 304 295 288 286 290 290 283 286 290 289 290 289 287 284 281 280 280 279 277 276 276 276 275 275 275 276 277 277 278 279 279 280 280 282 284 285 286 287
298 299 299 310 315 314 308 303 298 293 289 285 285 290 288 292 288 286 284 282 281 280 280 280 279 278 277 276 275 274 274 274 275 276 277 278 278 280 281 282 283 284 285 286
318 321 319 318 320 315 313 309 304 297 293 291 287 280 286 290 287 285 283 282 281 280 279 279 278 277 277 276 275 275 274 274 274 275 276 277 278 280 281 282 282 283 283 284
330 329 324 320 319 318 316 314 310 305 301 299 298 292 297 293 291 289 287 285 283 281 280 280 279 279 278 277 276 276 275 274 274 274 275 276 277 279 280 280 280 280 280 281
331 328 328 327 321 322 321 317 313 310 307 306 304 297 304 300 298 295 293 291 289 286 284 283 282 280 279 278 277 276 275 275 275 274 274 275 275 276 277 277 278 278 278 278
328 325 323 318 310 312 317 318 316 313 310 308 304 300 303 302 301 300 298 296 293 291 289 288 286 284 283 281 280 279 277 276 275 274 274 274 274 275 275 274 274 274 274 274
328 325 323 321 320 319 318 318 316 311 309 306 304 301 303 303 303 302 300 299 297 295 293 291 289 287 285 283 281 279 277 275 274 273 272 272 272 272 272 271 270 269 269 270
331 329 327 325 323 320 319 319 315 312 310 308 307 306 306 305 304 303 303 301 299 297 295 293 291 289 286 284 281 279 277 275 273 272 271 271 270 269 270 270 269 268 267 268
334 332 330 327 324 320 321 320 316 314 312 311 310 309 308 306 306 306 304 302 300 299 297 295 293 291 288 286 284 282 279 277 275 274 272 272 271 270 269 268 268 266 265 266
335 333 330 326 323 321 322 319 315 313 313 311 309 308 308 308 308 307 306 304 303 301 300 298 297 296 294 293 291 289 286 284 281 278 276 274 273 270 268 266 265 263 261 261
334 331 328 327 323 319 321 318 315 314 313 311 311 311 311 310 310 310 308 307 306 304 303 302 302 301 301 300 299 298 297 295 292 288 283 280 277 273 269 265 263 261 258 257
333 331 328 325 321 319 320 317 317 316 315 315 315 314 314 313 313 312 310 308 308 307 306 306 305 305 305 304 304 303 303 302 301 299 295 291 287 280 273 267 261 256 252 249
329 328 325 322 319 319 319 319 319 318 317 317 317 317 317 316 315 313 312 311 310 310 310 309 307 307 306 304 303 301 300 298 296 295 295 293 290 285 279 270 260 251 245 240
327 325 323 322 322 322 322 321 321 320 319 320 320 320 319 318 317 315 314 314 313 313 312 310 309 308 306 305 303 301 299 296 293 291 290 288 286 281 278 271 264 255 245 234
327 326 324 324 324 322 322 322 322 323 323 323 323 322 321 320 319 318 317 316 315 315 314 312 311 309 307 305 303 300 298 294 290 288 286 284 280 276 273 269 263 257 247 235
328 327 325 325 325 325 325 324 325 325 325 325 325 325 324 322 321 321 320 318 317 316 314 313 311 310 308 306 303 300 297 293 289 285 282 277 273 270 267 265 260 253 248 237
331 329 327 326 325 326 327 327 327 328 328 328 328 327 325 324 325 324 323 321 320 318 316 314 313 311 308 305 303 300 297 293 288 284 279 273 268 263 259 257 255 250 245 241
332 330 328 327 327 328 330 329 329 330 330 331 331 331 328 327 327 327 326 325 323 321 319 316 314 312 310 307 304 301 297 292 286 282 276 270 264 257 253 250 249 246 243 237
Height
5871 5873 5873 5873 5875 5876 5878 5881 5882 5881 5883 5886 5886 5886 5885 5885 5886 5886 5886 5886 5885 5884 5883 5881 5879 5877 5874 5872 5869 5866 5863 5861 5858 5856 5854 5852 5850 5848 5846 5844 5843 5841 5839 5837
5871 5871 5871 5871 5871 5873 5874 5876 5877 5876 5876 5878 5879 5879 5878 5878 5878 5878 5878 5878 5878 5877 5876 5874 5872 5869 5866 5864 5861 5858 5855 5853 5851 5849 5847 5845 5843 5842 5840 5838 5837 5835 5833 5831
5871 5870 5869 5869 5870 5871 5871 5873 5872 5871 5871 5872 5873 5874 5872 5870 5871 5870 5870 5870 5870 5869 5868 5866 5863 5860 5857 5854 5853 5850 5847 5845 5843 5842 5840 5838 5837 5836 5834 5832 5830 5829 5826 5824
5869 5868 5868 5868 5868 5868 5870 5867 5867 5867 5868 5869 5868 5869 5868 5863 5863 5862 5862 5862 5862 5861 5859 5857 5854 5851 5848 5846 5844 5842 5840 5838 5836 5835 5833 5831 5830 5829 5828 5826 5824 5822 5819 5817
5868 5866 5866 5866 5865 5864 5865 5863 5863 5863 5862 5863 5862 5863 5864 5856 5856 5855 5854 5854 5854 5853 5851 5848 5845 5842 5840 5839 5836 5835 5833 5831 5829 5827 5826 5825 5824 5822 5821 5819 5817 5815 5812 5810
5866 5864 5864 5863 5862 5861 5861 5861 5860 5859 5859 5860 5858 5858 5858 5852 5850 5849 5848 5847 5846 5845 5843 5841 5839 5837 5834 5832 5829 5827 5825 5824 5822 5821 5819 5818 5816 5815 5814 5812 5810 5808 5805 5802
5866 5864 5862 5861 5861 5861 5859 5860 5860 5861 5861 5859 5854 5853 5851 5848 5846 5845 5843 5842 5840 5839 5837 5835 5833 5830 5828 5825 5822 5820 5818 5816 5815 5813 5812 5810 5809 5807 5805 5803 5802 5799 5797 5794
5866 5866 5862 5860 5859 5858 5857 5857 5858 5858 5858 5856 5852 5849 5846 5844 5842 5840 5838 5836 5835 5833 5831 5829 5826 5823 5821 5818 5815 5813 5810 5808 5806 5805 5803 5802 5800 5798 5796 5794 5792 5790 5788 5786
5865 5864 5860 5858 5856 5855 5854 5854 5853 5852 5851 5850 5850 5845 5841 5839 5837 5835 5833 5831 5828 5826 5824 5821 5818 5816 5813 5810 5807 5804 5801 5799 5797 5795 5793 5792 5790 5788 5786 5784 5782 5780 5778 5776
5862 5861 5860 5857 5855 5854 5853 5851 5850 5849 5847 5847 5846 5843 5839 5835 5832 5829 5826 5823 5821 5818 5815 5812 5809 5806 5802 5799 5796 5793 5791 5788 5785 5783 5781 5780 5778 5776 5774 5773 5771 5769 5768 5766
5860 5859 5858 5856 5854 5852 5850 5849 5846 5845 5843 5841 5840 5841 5833 5830 5826 5823 5819 5816 5812 5808 5805 5801 5798 5794 5791 5787 5784 5781 5778 5775 5772 5770 5767 5766 5764 5763 5761 5760 5758 5757 5756 5755
5859 5858 5856 5854 5852 5850 5847 5845 5843 5841 5838 5835 5833 5833 5827 5822 5818 5815 5811 5806 5802 5798 5794 5790 5786 5781 5777 5774 5770 5766 5763 5760 5757 5754 5751 5749 5748 5747 5746 5745 5745 5744 5743 5743
5858 5856 5854 5853 5851 5846 5844 5841 5838 5835 5832 5829 5826 5824 5818 5813 5809 5804 5800 5795 5791 5786 5781 5777 5772 5768 5763 5758 5754 5750 5746 5743 5739 5736 5734 5732 5730 5730 5729 5729 5729 5730 5730 5730
5855 5853 5852 5850 5847 5843 5839 5836 5833 5829 5826 5822 5819 5813 5808 5803 5798 5793 5787 5782 5777 5772 5766 5761 5756 5751 5746 5741 5737 5733 5728 5724 5721 5717 5715 5713 5711 5710 5710 5711 5712 5713 5714 5716
5853 5851 5848 5845 5841 5838 5834 5831 5827 5823 5820 5816 5811 5804 5798 5792 5786 5781 5774 5768 5762 5756 5750 5744 5738 5733 5728 5722 5717 5712 5708 5704 5700 5697 5694 5692 5690 5690 5690 5691 5693 5695 5697 5699
5849 5847 5844 5841 5837 5833 5829 5826 5821 5817 5812 5807 5801 5795 5789 5782 5775 5769 5762 5754 5747 5740 5732 5725 5718 5712 5706 5700 5694 5689 5684 5680 5676 5673 5670 5668 5667 5667 5668 5669 5672 5675 5678 5681
5846 5843 5840 5837 5832 5828 5823 5820 5814 5809 5804 5799 5793 5787 5778 5771 5763 5756 5747 5738 5729 5721 5712 5703 5695 5687 5679 5672 5666 5661 5656 5651 5648 5645 5642 5640 5639 5641 5642 5644 5648 5652 5657 5662
5843 5839 5836 5832 5828 5823 5821 5814 5808 5802 5796 5790 5783 5775 5766 5757 5749 5740 5729 5719 5709 5699 5688 5678 5668 5659 5651 5644 5637 5631 5626 5622 5618 5615 5613 5611 5611 5612 5614 5617 5622 5628 5634 5640
5838 5835 5831 5827 5822 5816 5814 5807 5800 5794 5787 5780 5771 5762 5753 5743 5734 5724 5709 5697 5685 5674 5663 5652 5643 5635 5628 5622 5616 5611 5607 5602 5598 5594 5591 5589 5587 5587 5588 5591 5595 5601 5609 5617
5834 5830 5826 5821 5816 5811 5806 5798 5791 5784 5775 5766 5757 5747 5737 5725 5715 5705 5690 5676 5663 5651 5641 5633 5626 5620 5614 5609 5604 5599 5594 5590 5585 5581 5578 5575 5572 5571 5570 5571 5574 5579 5585 5594
5830 5825 5821 5816 5810 5804 5798 5789 5782 5775 5766 5755 5744 5732 5720 5708 5694 5681 5667 5654 5642 5633 5626 5619 5614 5608 5603 5598 5592 5588 5583 5579 5575 5571 5568 5565 5563 5561 5559 5559 5560 5563 5568 5575
5826 5821 5816 5810 5803 5797 5788 5780 5772 5764 5752 5740 5729 5716 5703 5690 5674 5660 5646 5636 5627 5621 5615 5608 5603 5598 5592 5586 5580 5575 5570 5566 5562 5559 5557 5555 5553 5552 5551 5551 5551 5553 5556 5562
5820 5816 5809 5804 5799 5789 5779 5769 5760 5749 5738 5726 5713 5700 5685 5670 5656 5643 5632 5624 5617 5610 5604 5597 5591 5585 5579 5572 5566 5560 5556 5551 5547 5545 5543 5542 5541 5541 5541 5541 5543 5544 5546 5550
5815 5809 5803 5796 5788 5780 5771 5760 5750 5738 5726 5713 5698 5682 5667 5652 5639 5629 5622 5615 5608 5601 5593 5586 5579 5571 5565 5558 5550 5544 5539 5534 5531 5528 5527 5527 5528 5529 5530 5531 5532 5535 5537 5541
5809 5802 5795 5787 5780 5772 5762 5750 5739 5727 5714 5700 5684 5666 5650 5637 5628 5620 5612 5605 5598 5590 5582 5573 5565 5557 5549 5541 5534 5527 5521 5516 5513 5511 5510 5511 5513 5515 5518 5520 5522 5525 5528 5531
5802 5795 5788 5780 5771 5761 5752 5741 5729 5716 5702 5686 5670 5654 5639 5626 5619 5612 5604 5596 5587 5578 5569 5560 5550 5541 5532 5523 5516 5509 5502 5498 5495 5494 5494 5495 5498 5501 5505 5508 5511 5514 5518 5521